Weather in Aniva

Russia / Sakhalin District     46°42′47″N   142°31′35″E
temp.,
°C
wind,
m/s
gust,
m/s
humid.,
%
clouds,
%
prec.,
mm/h
press.,
hPa
HPBL,
m
13 may, thu
thu1323:00+2s2393100 0.0 102247
02:00+2sse2294100 0.0 102133
05:00+2se1293100 0.0 101928
08:00+3se2388100 0.1 1018157
11:00+4sse2389100 0.3 1017234
14:00+4sse229180 0.1 1015147
17:00+7sse348479 0.1 1014206
20:00+7s36865 0.0 1013170
14 may, fri
fri1423:00+4s229567 0.0 101421
02:00+3se2297100 0.1 101315
05:00+3ese119821 0.1 101110
08:00+5se119427 0.0 101193
11:00+9sse338353 0.1 1011271
14:00+9se458132 0.2 1010259
17:00+10se22785 0.6 1010208
20:00+9se118616 0.1 101128
15 may, sat
sat1523:00+6se11930 0.2 101410
02:00+5nw0196100 0.0 101510
05:00+4s2298100 0.0 101618
08:00+4s3396100 0.0 1017208
11:00+4sse3495100 0.0 1016260
14:00+5se3393100 0.0 1015225
17:00+4se3498100 1.8 1012157
20:00+4sse2399100 1.3 1010109
16 may, sun
sun1623:00+5ese1698100 2.6 1009216
02:00+7s61498100 6.8 1005483
05:00+8sw3696100 14.8 1005195
08:00+8ssw3499100 1.9 1005115
11:00+11sw5886100 1.9 1005407
14:00+14sw7106241 0.0 10041039
17:00+14sw71064100 0.0 1003664
20:00+10sw4880100 0.0 1003232
17 may, mon
mon1723:00+7s2288100 0.0 100323
02:00+5sse229324 0.0 100313
05:00+4ene009629 0.0 100211
08:00+7ene119038 0.0 100275
11:00+14sw25615 0.0 1000521
14:00+16sw26545 0.0 1000845
17:00+17w37498 0.0 10001142
20:00+14w2366100 0.0 100244